(284742) = 2001 TM180 = 2008 UT203

Discovered at Socorro on 2008-10-28 by LINEAR.

Orbit

Orbit type: Main Belt

Note: WebGL enabled browser required.

epoch2024-03-31.0
epoch JD2460400.5
perihelion date2022-04-25.63840
perihelion JD2459695.13840
argument of perihelion (°)90.70980
ascending node (°)252.05773
inclination (°)5.31230
eccentricity0.1356254
perihelion distance (AU)1.9838302
Tisserand w.r.t. Jupiter3.6
ΔV w.r.t. Earth (km/sec)8.9
semimajor axis (AU)2.2951046
mean anomaly (°)199.94563
mean daily motion (°/day)0.28346540
aphelion distance (AU)2.606
period (years)3.48
P-vector [x]0.95102465
P-vector [y]-0.30741478
P-vector [z]-0.03237703
Q-vector [x]0.29630007
Q-vector [y]0.87673803
Q-vector [z]0.37886237
absolute magnitude17.36
phase slope0.15
uncertainty0
referenceMPEC 2024-E23
observations used351
oppositions13
arc length (days)8175
first opposition used2001
last opposition used2024
residual rms (arc-secs)0.67
perturbers coarse indicatorM-v
perturbers precise indicator003Ek
first observation date used2001-10-14.0
last observation date used2024-03-02.0
computer nameMPCLINUX
JD of orbit computation2456847.737974
perihelion JD uncertainty (days)1.3026E-04
argument of perihelion uncertainty (°)6.5164E-05
ascending node uncertainty (°)5.4995E-05
inclination uncertainty (°)7.4035E-06
eccentricity uncertainty 5.7665E-08
perihelion distance uncertainty (AU)1.4714E-07
Minimum Orbit Intersection Distances (in AU)
for orbit epoch: 2460400.5, reference: E2024-G95
Mercury1.59753
Venus1.26944
Earth0.98435
Mars0.63095
Jupiter2.76282
Saturn6.60589
Uranus15.8501
Neptune27.6395

Observations

359 total observations over interval: 2001 10 14.25139 – 2024 03 02.511755
These data are available for download (format description).

Date (UT) J2000 RA J2000 Dec Magn Location Ref
2001 10 14.25139 01 58 40.98 +19 41 35.1 19.2   704 – Lincoln Laboratory ETS, New Mexico MPS 40966
2001 10 14.26703 01 58 40.12 +19 41 28.8 19.4   704 – Lincoln Laboratory ETS, New Mexico MPS 40966
2001 10 14.28324 01 58 39.18 +19 41 22.7 20.3   704 – Lincoln Laboratory ETS, New Mexico MPS 40966
2001 10 14.29890 01 58 38.32 +19 41 16.4 19.6   704 – Lincoln Laboratory ETS, New Mexico MPS 40966
2001 10 14.31455 01 58 37.38 +19 41 09.3 19.3   704 – Lincoln Laboratory ETS, New Mexico MPS 40966
2001 10 21.25141 01 52 07.29 +18 49 26.6 19.2   704 – Lincoln Laboratory ETS, New Mexico MPS 40966
2001 10 21.26761 01 52 06.27 +18 49 18.7 19.6   704 – Lincoln Laboratory ETS, New Mexico MPS 40966
2001 10 21.28540 01 52 05.19 +18 49 11.0 19.4   704 – Lincoln Laboratory ETS, New Mexico MPS 40966
2001 10 21.30203 01 52 04.23 +18 49 02.2 19.3   704 – Lincoln Laboratory ETS, New Mexico MPS 40966
2001 11 17.21701 01 31 23.41 +15 04 54.2   704 – Lincoln Laboratory ETS, New Mexico MPS 407551
2001 11 17.23136 01 31 22.92 +15 04 48.0   704 – Lincoln Laboratory ETS, New Mexico MPS 407551
2001 11 17.26011 01 31 22.05 +15 04 34.1   704 – Lincoln Laboratory ETS, New Mexico MPS 407551
2001 11 17.27448 01 31 21.73 +15 04 28.3   704 – Lincoln Laboratory ETS, New Mexico MPS 407551
2001 12 18.06634 01 33 01.06 +12 54 52.5   704 – Lincoln Laboratory ETS, New Mexico MPS 407551
2001 12 18.09673 01 33 01.99 +12 54 51.5   704 – Lincoln Laboratory ETS, New Mexico MPS 407551
2001 12 18.11184 01 33 02.45 +12 54 51.2   704 – Lincoln Laboratory ETS, New Mexico MPS 407551
2001 12 18.12695 01 33 02.86 +12 54 49.9   704 – Lincoln Laboratory ETS, New Mexico MPS 407551
2005 12 01.42586 07 55 52.14 +17 05 25.2 22.4 V G96 – Mt. Lemmon Survey MPS 264719
2005 12 01.43396 07 55 51.96 +17 05 23.6 21.6 V G96 – Mt. Lemmon Survey MPS 264719
2005 12 01.44206 07 55 51.85 +17 05 23.1 22.2 V G96 – Mt. Lemmon Survey MPS 264719
2005 12 01.45010 07 55 51.67 +17 05 21.7 21.5 V G96 – Mt. Lemmon Survey MPS 264719
2008 10 28.25364 02 28 28.71 +20 35 01.4 19.9   704 – Lincoln Laboratory ETS, New Mexico MPS 263571
2008 10 28.26513 02 28 28.02 +20 34 55.8 19.4   704 – Lincoln Laboratory ETS, New Mexico MPS 263572
2008 10 28.27677 02 28 27.31 +20 34 52.1 19.7   704 – Lincoln Laboratory ETS, New Mexico MPS 263572
2008 10 28.28833 02 28 26.59 +20 34 46.5 19.5   704 – Lincoln Laboratory ETS, New Mexico MPS 263572
2008 10 28.30006 02 28 25.84 +20 34 41.3 19.7   704 – Lincoln Laboratory ETS, New Mexico MPS 263572
2008 10 30.16598 02 26 35.00 +20 20 09.3 19.6 V 691 – Steward Observatory, Kitt Peak-Spacewatch MPS 263572
2008 10 30.18369 02 26 33.87 +20 20 01.4 21.0 V 691 – Steward Observatory, Kitt Peak-Spacewatch MPS 263572
2008 10 30.19902 02 26 32.96 +20 19 53.7 19.5 V 691 – Steward Observatory, Kitt Peak-Spacewatch MPS 263572
2008 10 31.30161 02 25 26.94 +20 11 08.6 18.4 V G96 – Mt. Lemmon Survey MPS 263572
2008 10 31.30940 02 25 26.58 +20 11 04.9 19.0 V G96 – Mt. Lemmon Survey MPS 263572
2008 10 31.31714 02 25 26.07 +20 11 01.0 19.0 V G96 – Mt. Lemmon Survey MPS 263572
2008 10 31.32501 02 25 25.60 +20 10 57.4 19.1 V G96 – Mt. Lemmon Survey MPS 263572
2008 11 02.25448 02 23 31.52 +19 55 23.9 19.5   704 – Lincoln Laboratory ETS, New Mexico MPS 263572
2008 11 02.26622 02 23 30.79 +19 55 17.4 19.8   704 – Lincoln Laboratory ETS, New Mexico MPS 263572
2008 11 02.27816 02 23 30.11 +19 55 12.1 19.7   704 – Lincoln Laboratory ETS, New Mexico MPS 263572
2008 11 02.29019 02 23 29.28 +19 55 06.0 19.6   704 – Lincoln Laboratory ETS, New Mexico MPS 263572
2008 11 02.30216 02 23 28.61 +19 54 59.5 19.9   704 – Lincoln Laboratory ETS, New Mexico MPS 263572
2008 11 09.15397 02 16 59.85 +18 58 04.0 19.5 V 691 – Steward Observatory, Kitt Peak-Spacewatch MPS 264719
2008 11 09.17161 02 16 58.83 +18 57 55.3 19.5 V 691 – Steward Observatory, Kitt Peak-Spacewatch MPS 264719
2008 11 09.18925 02 16 57.85 +18 57 46.6 19.5 V 691 – Steward Observatory, Kitt Peak-Spacewatch MPS 264719
2008 11 17.07451 02 10 30.15 +17 52 55.4 19.6 V 691 – Steward Observatory, Kitt Peak-Spacewatch MPS 265371
2008 11 17.09839 02 10 29.07 +17 52 44.4 19.8 V 691 – Steward Observatory, Kitt Peak-Spacewatch MPS 265371
2008 11 17.12227 02 10 28.00 +17 52 33.2 19.7 V 691 – Steward Observatory, Kitt Peak-Spacewatch MPS 265371
2008 11 20.08229 02 08 25.69 +17 29 24.3 19.8 V 691 – Steward Observatory, Kitt Peak-Spacewatch MPS 265371
2008 11 20.09814 02 08 25.05 +17 29 16.9 19.8 V 691 – Steward Observatory, Kitt Peak-Spacewatch MPS 265371
2008 11 20.11399 02 08 24.42 +17 29 09.8 19.8 V 691 – Steward Observatory, Kitt Peak-Spacewatch MPS 265371
2008 11 20.26366 02 08 18.38 +17 28 02.2 19.3 C 704 – Lincoln Laboratory ETS, New Mexico MPS 288056
2008 11 20.27625 02 08 17.74 +17 27 56.8 19.5 C 704 – Lincoln Laboratory ETS, New Mexico MPS 288056
2008 11 20.28930 02 08 17.19 +17 27 49.2 19.2 C 704 – Lincoln Laboratory ETS, New Mexico MPS 288056
2008 11 20.30194 02 08 16.58 +17 27 43.3 19.6 C 704 – Lincoln Laboratory ETS, New Mexico MPS 288056
2008 11 20.31452 02 08 16.08 +17 27 36.8 19.6 C 704 – Lincoln Laboratory ETS, New Mexico MPS 288056
2009 01 01.15857 02 09 15.51 +14 46 58.2 20.8 V G96 – Mt. Lemmon Survey MPS 270421
2009 01 01.16635 02 09 15.80 +14 46 58.3 20.7 V G96 – Mt. Lemmon Survey MPS 270421
2009 01 01.17417 02 09 16.09 +14 46 58.0 20.7 V G96 – Mt. Lemmon Survey MPS 270421
2009 01 01.18204 02 09 16.34 +14 46 58.3 20.8 V G96 – Mt. Lemmon Survey MPS 270421
2011 06 24.33681 20 17 43.90 -13 46 24.0 20.0 V G96 – Mt. Lemmon Survey MPS 385364
2011 06 24.34346 20 17 43.69 -13 46 23.2 19.9 V G96 – Mt. Lemmon Survey MPS 385364
2011 06 24.34977 20 17 43.44 -13 46 21.9 20.1 V G96 – Mt. Lemmon Survey MPS 385364
2011 06 24.35618 20 17 43.22 -13 46 20.7 19.9 V G96 – Mt. Lemmon Survey MPS 385364
2011 07 20.48040 19 56 15.405 -13 06 54.30 19.3 i F51 – Pan-STARRS 1, Haleakala MPS 387797
2011 07 20.49102 19 56 14.681 -13 06 54.19 19.2 i F51 – Pan-STARRS 1, Haleakala MPS 387797
2011 07 26.40639 19 50 18.389 -13 07 53.38 20.1 g F51 – Pan-STARRS 1, Haleakala MPS 387251
2011 07 26.41786 19 50 17.663 -13 07 53.68 19.6 r F51 – Pan-STARRS 1, Haleakala MPS 387251
2011 07 26.42759 19 50 17.049 -13 07 53.98 19.6 r F51 – Pan-STARRS 1, Haleakala MPS 387251
2013 01 03.33855 07 55 34.17 +15 05 57.8 21.1 V G96 – Mt. Lemmon Survey MPS 449529
2013 01 03.34440 07 55 33.78 +15 05 57.4 20.9 V G96 – Mt. Lemmon Survey MPS 449529
2013 01 03.35031 07 55 33.42 +15 05 57.6 20.9 V G96 – Mt. Lemmon Survey MPS 449529
2013 01 03.35624 07 55 32.95 +15 05 57.8 21.5 V G96 – Mt. Lemmon Survey MPS 449529
2013 01 03.36214 07 55 32.62 +15 05 58.1 20.7 V G96 – Mt. Lemmon Survey MPS 449529
2013 01 16.97545 07 40 25.84 +15 20 10.1 21.1   J43 – Oukaimeden Observatory, Marrakech MPS 452152
2013 01 16.98729 07 40 25.00 +15 20 11.2 20.7   J43 – Oukaimeden Observatory, Marrakech MPS 452152
2013 01 16.99903 07 40 24.20 +15 20 12.1 20.7   J43 – Oukaimeden Observatory, Marrakech MPS 452152
2013 01 17.01090 07 40 23.37 +15 20 13.1 20.6   J43 – Oukaimeden Observatory, Marrakech MPS 452152
2013 01 17.47330 07 39 52.231 +15 20 53.44 20.5 w F51 – Pan-STARRS 1, Haleakala MPS 452152
2013 01 17.48851 07 39 51.177 +15 20 54.65 20.6 w F51 – Pan-STARRS 1, Haleakala MPS 452152
2013 01 17.50387 07 39 50.124 +15 20 55.90 20.6 w F51 – Pan-STARRS 1, Haleakala MPS 452152
2014 04 05.50624 14 58 57.968 -22 10 03.66 20.5 w F51 – Pan-STARRS 1, Haleakala MPS 510926
2014 04 05.51814 14 58 57.538 -22 10 01.81 20.7 w F51 – Pan-STARRS 1, Haleakala MPS 510926
2014 04 26.26377 14 42 17.18 -20 40 27.4 19.9 V W84 – Cerro Tololo-DECam MPS 789326
2014 04 26.26701 14 42 16.98 -20 40 26.2   W84 – Cerro Tololo-DECam MPS 789326
2014 04 26.27014 14 42 16.79 -20 40 25.1   W84 – Cerro Tololo-DECam MPS 789326
2014 04 26.27336 14 42 16.59 -20 40 23.9   W84 – Cerro Tololo-DECam MPS 789326
2014 04 26.27654 14 42 16.40 -20 40 22.7   W84 – Cerro Tololo-DECam MPS 789326
2014 05 07.40081 14 31 06.707 -19 27 51.40 20.0 r F51 – Pan-STARRS 1, Haleakala MPS 515046
2014 05 07.41162 14 31 06.021 -19 27 46.81 20.1 r F51 – Pan-STARRS 1, Haleakala MPS 515046
2014 05 07.42215 14 31 05.374 -19 27 42.38 20.1 r F51 – Pan-STARRS 1, Haleakala MPS 515046
